Clinton, AR

4:54 AM CDT on April 22, 2018 (GMT -0500)
Clinton

Weather History for KCCA - July, 2013

Change the Weather History Date:

Wednesday, July 3, 2013

  Actual Average (KBVX) Record (KBVX)
Temperature  
Mean Temperature 70 °F -  
Max Temperature 84 °F 93 °F 103 °F (1980)
Min Temperature 55 °F 68 °F 50 °F (1959)
Cooling Degree Days 4    
Growing Degree Days 20 (Base 50)    
Moisture  
Dew Point 56 °F    
Average Humidity 68    
Maximum Humidity 100    
Minimum Humidity 33    
Precipitation  
Precipitation 0.00 in - - ()
Sea Level Pressure  
Sea Level Pressure 30.08 in    
Wind  
Wind Speed - (North)    
Max Wind Speed -    
Max Gust Speed -    
Visibility 8 miles    
Events      
Averages and records for this station are not official NWS values.
T = Trace of Precipitation, MM = Missing Value Source: NWS Daily Summary

Daily Weather History Graph

Daily Weather History Graph

Search for Another Location

Airport or City:

Astronomy

Jul. 03, 2013 Rise Set
Actual Time 5:58 AM CDT 8:29 PM CDT
Civil Twilight 5:29 AM CDT 8:58 PM CDT
Nautical Twilight 4:52 AM CDT 9:35 PM CDT
Astronomical Twilight 4:11 AM CDT 10:16 PM CDT
Moon 2:33 AM CDT (7/3) 4:43 PM CDT (7/3)
Length of Visible Light 15h 29m
Length of Day
14h 30m
Waning Crescent, 18% of the Moon is Illuminated
Jul 3
Waning Crescent
Jul 8
New
Jul 15
First Quarter
Jul 22
Full
Jul 29
Last Quarter

Hourly Weather History & Observations

Time (CDT) Temp. Heat Index Dew Point Humidity Pressure Visibility Wind Dir Wind Speed Gust Speed Precip Events Conditions
12:15 AM 60.8 °F - 57.2 °F 88% 30.10 in 8.0 mi North - - N/A   Clear
12:35 AM 60.8 °F - 57.2 °F 88% 30.10 in 7.0 mi North - - N/A   Clear
12:55 AM 60.8 °F - 57.2 °F 88% 30.10 in 7.0 mi North - - N/A   Clear
1:15 AM 59.0 °F - 57.2 °F 94% 30.10 in 7.0 mi North - - N/A   Clear
1:35 AM 59.0 °F - 57.2 °F 94% 30.09 in 7.0 mi North - - N/A   Clear
1:55 AM 59.0 °F - 57.2 °F 94% 30.09 in 7.0 mi North - - N/A   Clear
2:15 AM 57.2 °F - 57.2 °F 100% 30.09 in 7.0 mi North - - N/A   Clear
2:35 AM 57.2 °F - 57.2 °F 100% 30.08 in 7.0 mi North - - N/A   Clear
2:55 AM 57.2 °F - 55.4 °F 94% 30.08 in 5.0 mi North - - N/A   Clear
3:15 AM 57.2 °F - 55.4 °F 94% 30.08 in 5.0 mi North - - N/A   Clear
3:35 AM 57.2 °F - 55.4 °F 94% 30.09 in 5.0 mi North - - N/A   Clear
3:55 AM 55.4 °F - 55.4 °F 100% 30.09 in 5.0 mi North - - N/A   Clear
4:15 AM 55.4 °F - 55.4 °F 100% 30.09 in 5.0 mi North - - N/A   Clear
4:35 AM 55.4 °F - 55.4 °F 100% 30.09 in 5.0 mi North - - N/A   Clear
4:55 AM 55.4 °F - 55.4 °F 100% 30.10 in 5.0 mi North - - N/A   Clear
5:15 AM 55.4 °F - 55.4 °F 100% 30.10 in 5.0 mi North - - N/A   Clear
5:35 AM 55.4 °F - 53.6 °F 94% 30.11 in 5.0 mi North - - N/A   Clear
5:55 AM 55.4 °F - 53.6 °F 94% 30.11 in 5.0 mi North - - N/A   Clear
6:15 AM 55.4 °F - 53.6 °F 94% 30.11 in 5.0 mi North - - N/A   Clear
6:35 AM 55.4 °F - 53.6 °F 94% 30.11 in 5.0 mi North - - N/A   Clear
6:55 AM 55.4 °F - 55.4 °F 100% 30.11 in 5.0 mi North - - N/A   Clear
7:15 AM 55.4 °F - 55.4 °F 100% 30.12 in 5.0 mi North - - N/A   Clear
7:35 AM 59.0 °F - 57.2 °F 94% 30.12 in 7.0 mi North - - N/A   Clear
7:55 AM 60.8 °F - 55.4 °F 82% 30.13 in 7.0 mi North - - N/A   Clear
8:15 AM 62.6 °F - 57.2 °F 82% 30.13 in 8.0 mi North - - N/A   Clear
8:35 AM 64.4 °F - 57.2 °F 77% 30.14 in 8.0 mi North - - N/A   Clear
8:55 AM 68.0 °F - 57.2 °F 68% 30.14 in 8.0 mi North - - N/A   Clear
9:15 AM 69.8 °F - 59.0 °F 68% 30.14 in 9.0 mi North - - N/A   Clear
9:35 AM 71.6 °F - 60.8 °F 69% 30.13 in 3.0 mi North - - N/A   Haze
9:55 AM 73.4 °F - 57.2 °F 57% 30.13 in 8.0 mi North - - N/A   Clear
10:15 AM 75.2 °F - 55.4 °F 50% 30.13 in 4.0 mi North - - N/A   Haze
10:35 AM 77.0 °F - 57.2 °F 50% 30.13 in 10.0 mi North - - N/A   Clear
10:55 AM 78.8 °F - 55.4 °F 44% 30.12 in 10.0 mi North - - N/A   Clear
11:15 AM 78.8 °F - 55.4 °F 44% 30.12 in 10.0 mi North - - N/A   Clear
11:35 AM 78.8 °F - 55.4 °F 44% 30.12 in 10.0 mi North - - N/A   Clear
11:55 AM 80.6 °F 80.8 °F 57.2 °F 45% 30.11 in 10.0 mi North - - N/A   Clear
12:15 PM 80.6 °F 80.3 °F 53.6 °F 39% 30.11 in 10.0 mi North - - N/A   Partly Cloudy
12:35 PM 80.6 °F 80.3 °F 53.6 °F 39% 30.10 in 10.0 mi North - - N/A   Clear
12:55 PM 80.6 °F 80.3 °F 53.6 °F 39% 30.10 in 10.0 mi North - - N/A   Scattered Clouds
1:15 PM 82.4 °F 81.7 °F 55.4 °F 39% 30.09 in 10.0 mi North - - N/A   Partly Cloudy
1:35 PM 82.4 °F 81.4 °F 53.6 °F 37% 30.08 in 10.0 mi North - - N/A   Clear
1:55 PM 84.2 °F 82.8 °F 53.6 °F 35% 30.08 in 10.0 mi North - - N/A   Scattered Clouds
2:15 PM 84.2 °F - 51.8 °F 33% 30.08 in 10.0 mi North - - N/A   Partly Cloudy
2:35 PM 84.2 °F 82.8 °F 53.6 °F 35% 30.07 in 10.0 mi North - - N/A   Clear
2:55 PM 82.4 °F 81.4 °F 53.6 °F 37% 30.07 in 10.0 mi North - - N/A   Scattered Clouds
3:15 PM 84.2 °F 83.0 °F 55.4 °F 37% 30.06 in 10.0 mi North - - N/A   Partly Cloudy
3:35 PM 84.2 °F 83.5 °F 57.2 °F 40% 30.06 in 10.0 mi North - - N/A   Scattered Clouds
3:55 PM 84.2 °F 83.0 °F 55.4 °F 37% 30.06 in 10.0 mi North - - N/A   Partly Cloudy
4:15 PM 84.2 °F 82.8 °F 53.6 °F 35% 30.05 in 10.0 mi North - - N/A   Clear
4:35 PM 84.2 °F 83.0 °F 55.4 °F 37% 30.05 in 10.0 mi North - - N/A   Clear
4:55 PM 84.2 °F 83.0 °F 55.4 °F 37% 30.04 in 10.0 mi North - - N/A   Clear
5:15 PM 84.2 °F - 51.8 °F 33% 30.04 in 10.0 mi North - - N/A   Clear
5:35 PM 84.2 °F 82.8 °F 53.6 °F 35% 30.03 in 10.0 mi North - - N/A   Clear
5:55 PM 82.4 °F 81.7 °F 55.4 °F 39% 30.03 in 10.0 mi North - - N/A   Clear
6:15 PM 82.4 °F 81.4 °F 53.6 °F 37% 30.03 in 10.0 mi North - - N/A   Clear
6:35 PM 82.4 °F 81.4 °F 53.6 °F 37% 30.03 in 10.0 mi North - - N/A   Clear
6:55 PM 82.4 °F - 51.8 °F 35% 30.03 in 10.0 mi North - - N/A   Clear
7:15 PM 82.4 °F 81.7 °F 55.4 °F 39% 30.03 in 10.0 mi North - - N/A   Clear
7:35 PM 78.8 °F - 57.2 °F 47% 30.03 in 10.0 mi North - - N/A   Clear
7:55 PM 77.0 °F - 57.2 °F 50% 30.03 in 9.0 mi North - - N/A   Clear
8:15 PM 73.4 °F - 60.8 °F 65% 30.03 in 9.0 mi North - - N/A   Clear
8:35 PM 71.6 °F - 59.0 °F 64% 30.04 in 10.0 mi North - - N/A   Clear
8:55 PM 69.8 °F - 60.8 °F 73% 30.04 in 10.0 mi North - - N/A   Clear
9:15 PM 68.0 °F - 60.8 °F 78% 30.05 in 10.0 mi North - - N/A   Clear
9:35 PM 66.2 °F - 60.8 °F 83% 30.06 in 10.0 mi North - - N/A   Clear
9:55 PM 64.4 °F - 60.8 °F 88% 30.06 in 10.0 mi North - - N/A   Clear
10:15 PM 64.4 °F - 60.8 °F 88% 30.07 in 10.0 mi North - - N/A   Clear
10:35 PM 64.4 °F - 60.8 °F 88% 30.08 in 10.0 mi North - - N/A   Clear
10:55 PM 62.6 °F - 59.0 °F 88% 30.08 in 10.0 mi North - - N/A   Clear
11:15 PM 62.6 °F - 59.0 °F 88% 30.08 in 10.0 mi North - - N/A   Clear
11:35 PM 62.6 °F - 59.0 °F 88% 30.08 in 10.0 mi North - - N/A   Clear
11:55 PM 60.8 °F - 59.0 °F 94% 30.08 in 10.0 mi North - - N/A   Clear